Weather observations for the past three days for
Madison, Madison-Lac Qui Parle County Airport
Imperial (Metric)
Date Time (cdt) Wind (mph) Vis. (mi.) Weather Sky Cond. Temperature (ºF) Relative Humidity Wind Chill (°F) Heat Index (°F) Pressure Precipitation (in)
Air Dwpt 6 hour altimeter (in) sea level (mb) 1 hr 3 hr 6 hr
Max. Min.
08 05:35 SW 6 10.00 Partly Cloudy SCT100 42.8 21.2 42% 40 29.77 0.0
08 05:15 SW 3 10.00 Fair CLR 41 21.2 45% 29.77 0.0
08 04:55 SW 5 10.00 Fair CLR 41 23 49% 38 29.77 0.0
08 04:35 SW 7 10.00 Fair CLR 42.8 21.2 42% 39 29.77 0.0
08 04:15 SW 3 10.00 Fair CLR 41 23 49% 29.77 0.0
08 03:55 SW 5 10.00 Fair CLR 41 24.8 53% 38 29.77 0.0
08 03:35 SW 5 10.00 Fair CLR 41 23 49% 38 29.77 0.0
08 03:15 SW 5 10.00 Fair CLR 42.8 23 46% 41 29.78 0.0
08 02:55 SW 6 10.00 Fair CLR 42.8 21.2 42% 40 29.78 0.0
08 02:35 SW 6 10.00 Fair CLR 41 21.2 45% 38 29.79 0.0
08 02:15 SW 5 10.00 Fair CLR 41 21.2 45% 38 29.79 0.0
08 01:55 SW 5 10.00 Fair CLR 39.2 21.2 48% 36 29.8 0.0
08 01:35 SW 3 10.00 Fair CLR 39.2 23 52% 29.8 0.0
08 01:15 SW 6 10.00 Fair CLR 39.2 21.2 48% 36 29.8 0.0
08 00:55 S 8 10.00 Fair CLR 42.8 19.4 39% 39 29.8 0.0
08 00:35 S 8 10.00 Fair CLR 41 19.4 42% 36 29.8 0.0
08 00:15 S 7 10.00 Fair CLR 41 19.4 42% 37 29.81 0.0
07 23:55 S 5 10.00 Fair CLR 41 19.4 42% 38 29.81 0.0
07 23:35 SW 6 10.00 Fair CLR 42.8 21.2 42% 40 29.82 0.0
07 23:15 SW 6 10.00 Fair CLR 44.6 19.4 37% 42 29.82 0.0
07 22:55 S 5 10.00 Fair CLR 44.6 23 43% 43 29.82 0.0
07 22:35 S 5 10.00 Fair CLR 46.4 19.4 34% 45 29.82 0.0
07 22:15 SW 3 10.00 Fair CLR 48.2 26.6 43% 29.82 0.0
07 21:55 Calm 10.00 Fair CLR 48.2 17.6 29% 29.82 0.0
07 21:35 Calm 10.00 Fair CLR 51.8 15.8 24% 29.82 0.0
07 21:15 Calm 10.00 Fair CLR 55.4 10.4 16% 29.82 0.0
07 20:55 Calm 10.00 Fair CLR 55.4 10.4 16% 29.82 0.0
07 20:35 NW 3 10.00 Fair CLR 53.6 12.2 19% 29.82 0.0
07 20:15 NW 7 10.00 Fair CLR 55.4 15.8 21% 29.81 0.0
07 19:55 NW 6 10.00 Fair CLR 57.2 15.8 20% 29.81 0.0
07 19:35 NW 7 10.00 Fair CLR 57.2 14 18% 29.81 0.0
07 19:15 NW 10 G 16 10.00 Fair CLR 59 12.2 16% 29.81 0.0
07 18:55 NW 12 10.00 Fair CLR 60.8 10.4 13% 29.81 0.0
07 18:35 NW 13 G 18 10.00 Fair CLR 60.8 12.2 15% 29.82 0.0
07 18:15 W 12 G 21 10.00 Fair CLR 60.8 10.4 13% 29.82 0.0
07 17:55 W 9 G 20 10.00 Fair CLR 60.8 10.4 13% 29.82 0.0
07 17:35 NW 15 G 21 10.00 Fair CLR 60.8 10.4 13% 29.82 0.0
07 17:15 NW 10 G 21 10.00 Fair CLR 60.8 10.4 13% 29.82 0.0
07 16:55 NW 15 G 23 10.00 Fair CLR 60.8 8.6 12% 29.83 0.0
07 16:35 NW 10 G 22 10.00 Fair CLR 60.8 10.4 13% 29.83 0.0
07 16:15 NW 8 G 18 10.00 Fair CLR 60.8 14 16% 29.83 0.0
07 15:55 NW 14 G 22 10.00 Fair CLR 60.8 12.2 15% 29.83 0.0
07 15:35 NW 14 G 18 10.00 Fair CLR 60.8 15.8 17% 29.84 0.0
07 15:15 NW 7 G 23 10.00 Fair CLR 59 15.8 18% 29.85 0.0
07 14:55 NW 13 G 22 10.00 Fair CLR 60.8 12.2 15% 29.85 0.0
07 14:35 NW 7 G 20 10.00 Fair CLR 59 15.8 18% 29.85 0.0
07 14:15 W 10 G 22 10.00 Fair CLR 57.2 17.6 21% 29.86 0.0
07 13:55 N 7 G 10 10.00 Fair CLR 57.2 17.6 21% 29.86 0.0
07 13:35 N 14 G 18 10.00 Fair CLR 57.2 17.6 21% 29.87 0.0
07 13:15 Calm 10.00 Fair CLR 55.4 15.8 21% 29.87 0.0
07 12:55 W 12 G 18 10.00 Fair CLR 55.4 17.6 23% 29.88 0.0
07 12:35 W 8 G 17 10.00 Fair CLR 53.6 15.8 22% 29.89 0.0
07 12:15 W 6 G 17 10.00 Fair CLR 53.6 15.8 22% 29.89 0.0
07 11:55 NW 9 10.00 Fair CLR 53.6 17.6 24% 29.9 0.0
07 11:35 W 6 10.00 Fair CLR 53.6 17.6 24% 29.9 0.0
07 11:15 N 3 10.00 Fair CLR 53.6 21.2 28% 29.9 0.0
07 10:55 Calm 10.00 Fair CLR 51.8 17.6 26% 29.91 0.0
07 10:35 W 3 10.00 Fair CLR 51.8 21.2 30% 29.91 0.0
07 10:15 Calm 10.00 Fair CLR 50 19.4 30% 29.91 0.0
07 09:55 S 6 10.00 Fair CLR 50 21.2 32% 48 29.91 0.0
07 09:35 S 7 10.00 Fair CLR 48.2 21.2 34% 46 29.91 0.0
07 09:15 S 6 10.00 Fair CLR 48.2 21.2 34% 46 29.91 0.0
07 08:55 S 7 10.00 Fair CLR 46.4 21.2 37% 43 29.91 0.0
07 08:35 S 8 10.00 Fair CLR 44.6 23 43% 41 29.91 0.0
07 08:15 S 6 10.00 Fair CLR 42.8 24.8 49% 40 29.9 0.0
07 07:55 S 6 10.00 Fair CLR 41 24.8 53% 38 29.9 0.0
07 07:35 Calm 10.00 Fair CLR 37.4 24.8 60% 29.91 0.0
07 07:15 Calm 10.00 Fair CLR 30.2 24.8 80% 29.91 0.0
07 06:55 Calm 10.00 Fair CLR 28.4 21.2 74% 29.91 0.0
07 06:35 Calm 10.00 Fair CLR 30.2 21.2 69% 29.91 0.0
07 06:15 S 5 10.00 Fair CLR 28.4 21.2 74% 24 29.91 0.0
07 05:55 S 7 10.00 Fair CLR 28.4 21.2 74% 22 29.91 0.0
07 05:35 S 7 10.00 Fair CLR 30.2 21.2 69% 24 29.91 0.0
07 05:15 S 6 10.00 Partly Cloudy SCT100 30.2 21.2 69% 25 29.91 0.0
07 04:55 S 6 10.00 Partly Cloudy SCT100 30.2 21.2 69% 25 29.92 0.0
07 04:35 SE 6 10.00 Partly Cloudy SCT100 33.8 21.2 60% 29 29.92 0.0
07 04:15 SE 5 10.00 Fair CLR 30.2 21.2 69% 26 29.92 0.0
07 03:55 S 3 10.00 Fair CLR 33.8 21.2 60% 29.93 0.0
07 03:35 S 3 10.00 Fair CLR 33.8 23 65% 29.93 0.0
07 03:15 S 3 10.00 Partly Cloudy SCT090 33.8 21.2 60% 29.93 0.0
07 02:55 Calm 10.00 Partly Cloudy SCT090 32 21.2 64% 29.93 0.0
07 02:35 Calm 10.00 Partly Cloudy SCT090 32 21.2 64% 29.94 0.0
07 02:15 SE 5 10.00 Mostly Cloudy BKN090 33.8 21.2 60% 30 29.94 0.0
07 01:55 S 7 10.00 Mostly Cloudy BKN090 33.8 21.2 60% 28 29.94 0.0
07 01:35 S 6 10.00 Mostly Cloudy BKN090 33.8 21.2 60% 29 29.95 0.0
07 01:15 S 7 10.00 Partly Cloudy SCT090 32 21.2 64% 26 29.95 0.0
07 00:55 SE 3 10.00 Partly Cloudy SCT100 33.8 21.2 60% 29.96 0.0
07 00:35 SE 5 10.00 Partly Cloudy SCT100 33.8 21.2 60% 30 29.97 0.0
07 00:15 E 3 10.00 Fair CLR 33.8 21.2 60% 29.97 0.0
06 23:55 E 3 10.00 Fair CLR 32 21.2 64% 29.98 0.0
06 23:35 E 3 10.00 Fair CLR 33.8 21.2 60% 29.98 0.0
06 23:15 NE 3 10.00 Partly Cloudy SCT100 33.8 21.2 60% 29.99 0.0
06 22:55 NE 5 10.00 Partly Cloudy SCT100 33.8 21.2 60% 30 29.99 0.0
06 22:35 NE 6 10.00 Partly Cloudy SCT100 33.8 19.4 56% 29 29.99 0.0
06 22:15 NE 5 10.00 Fair CLR 33.8 23 65% 30 29.99 0.0
06 21:55 NE 5 10.00 Fair CLR 35.6 21.2 56% 32 29.99 0.0
06 21:35 NE 7 10.00 Fair CLR 35.6 21.2 56% 31 29.99 0.0
06 21:15 NE 7 10.00 Fair CLR 37.4 21.2 52% 33 29.98 0.0
06 20:55 N 7 10.00 Fair CLR 39.2 21.2 48% 35 29.98 0.0
06 20:35 N 6 10.00 Fair CLR 42.8 19.4 39% 40 29.98 0.0
06 20:15 N 5 10.00 Fair CLR 42.8 21.2 42% 41 29.97 0.0
06 19:55 N 5 10.00 Fair CLR 44.6 21.2 39% 43 29.98 0.0
06 19:35 N 8 10.00 Fair CLR 46.4 19.4 34% 43 29.98 0.0
06 19:15 N 9 10.00 Partly Cloudy SCT080 46.4 19.4 34% 42 29.98 0.0
06 18:55 N 13 10.00 Partly Cloudy SCT080 46.4 19.4 34% 41 29.99 0.0
06 18:35 NW 7 10.00 Partly Cloudy SCT080 46.4 19.4 34% 43 29.99 0.0
06 18:15 N 10 10.00 Mostly Cloudy BKN080 46.4 19.4 34% 42 29.99 0.0
06 17:55 N 14 10.00 Mostly Cloudy BKN070 48.2 19.4 32% 43 29.99 0.0
06 17:35 NW 9 G 20 10.00 Mostly Cloudy BKN070 48.2 21.2 34% 45 30 0.0
06 17:15 NW 13 G 20 10.00 Mostly Cloudy BKN070 48.2 21.2 34% 43 30 0.0
06 16:55 NW 10 G 20 10.00 Mostly Cloudy BKN070 46.4 21.2 37% 42 30.01 0.0
06 16:35 NW 12 G 22 10.00 Mostly Cloudy BKN070 46.4 21.2 37% 42 30.01 0.0
06 16:15 NW 12 G 20 10.00 Mostly Cloudy BKN060 46.4 21.2 37% 42 30.02 0.0
06 15:55 NW 9 G 18 10.00 Mostly Cloudy BKN060 46.4 21.2 37% 42 30.03 0.0
06 15:35 NW 10 10.00 Mostly Cloudy BKN060 46.4 21.2 37% 42 30.03 0.0
06 15:15 NW 15 G 18 10.00 Mostly Cloudy BKN060 46.4 21.2 37% 41 30.04 0.0
06 14:55 NW 14 G 20 10.00 Overcast OVC060 44.6 19.4 37% 39 30.04 0.0
06 14:35 W 12 G 22 10.00 Mostly Cloudy BKN060 44.6 19.4 37% 39 30.04 0.0
06 14:15 NW 16 G 24 10.00 Mostly Cloudy BKN050 44.6 19.4 37% 38 30.05 0.0
06 13:55 NW 13 G 18 10.00 Mostly Cloudy BKN050 44.6 19.4 37% 39 30.05 0.0
06 13:35 NW 9 G 17 10.00 Mostly Cloudy BKN050 44.6 21.2 39% 40 30.05 0.0
06 13:15 NW 12 G 16 10.00 Mostly Cloudy BKN050 42.8 21.2 42% 37 30.06 0.0
06 12:55 NW 13 10.00 Mostly Cloudy BKN050 42.8 21.2 42% 37 30.06 0.0
06 12:35 NW 15 G 18 10.00 Mostly Cloudy BKN048 BKN050 42.8 21.2 42% 36 30.07 0.0
06 12:15 N 16 G 21 10.00 Mostly Cloudy BKN048 42.8 21.2 42% 36 30.08 0.0
06 11:55 NW 10 G 17 10.00 Mostly Cloudy BKN050 41 21.2 45% 35 30.08 0.0
06 11:35 NW 9 G 18 10.00 Mostly Cloudy BKN048 41 21.2 45% 36 30.08 0.0
06 11:15 N 13 10.00 Mostly Cloudy BKN044 41 21.2 45% 34 30.08 0.0
06 10:55 NW 10 10.00 Mostly Cloudy BKN044 39.2 21.2 48% 33 30.08 0.0
06 10:35 NW 13 10.00 Mostly Cloudy BKN047 39.2 21.2 48% 32 30.08 0.0
06 10:15 N 10 10.00 Mostly Cloudy SCT039 BKN050 39.2 21.2 48% 33 30.08 0.0
06 09:55 N 10 10.00 Mostly Cloudy SCT039 BKN050 39.2 23 52% 33 30.08 0.0
06 09:35 NW 9 10.00 Mostly Cloudy BKN050 39.2 24.8 56% 34 30.08 0.0
06 09:15 NW 8 10.00 Overcast OVC050 37.4 24.8 60% 32 30.08 0.0
06 08:55 NW 8 10.00 Overcast OVC048 37.4 24.8 60% 32 30.08 0.0
06 08:35 NW 9 10.00 Overcast OVC048 37.4 24.8 60% 31 30.07 0.0
06 08:15 NW 9 10.00 Overcast OVC050 37.4 24.8 60% 31 30.07 0.0
06 07:55 NW 7 10.00 Overcast OVC050 37.4 24.8 60% 33 30.06 0.0
06 07:35 NW 6 10.00 Overcast OVC050 37.4 24.8 60% 33 30.06 0.0
06 07:15 NW 5 10.00 Overcast OVC050 35.6 26.6 70% 32 30.05 0.0
06 06:55 NW 3 10.00 Overcast OVC050 35.6 24.8 65% 30.04 0.0
06 06:35 NW 6 10.00 Overcast OVC050 35.6 24.8 65% 31 30.03 0.0
06 06:15 NW 5 10.00 Overcast OVC050 35.6 24.8 65% 32 30.03 0.0
06 05:55 W 6 10.00 Overcast OVC050 35.6 24.8 65% 31 30.02 0.0
06 05:35 NW 6 10.00 Overcast OVC050 35.6 24.8 65% 31 30.02 0.0
06 05:15 NW 3 10.00 Overcast OVC050 35.6 24.8 65% 30.02 0.0
06 04:55 W 5 10.00 Overcast OVC050 35.6 24.8 65% 32 30.02 0.0
06 04:35 NW 6 10.00 Overcast OVC055 35.6 24.8 65% 31 30.02 0.0
06 04:15 NW 5 10.00 Overcast OVC055 35.6 24.8 65% 32 30.02 0.0
06 03:55 NW 7 10.00 Overcast OVC065 35.6 24.8 65% 31 30.01 0.0
06 03:35 NW 6 10.00 Overcast OVC065 35.6 24.8 65% 31 30.01 0.0
06 03:15 NW 7 10.00 Overcast OVC065 35.6 24.8 65% 31 30.01 0.0
06 02:55 NW 7 10.00 Overcast OVC065 33.8 24.8 70% 28 30.01 0.0
06 02:35 NW 8 10.00 Overcast OVC065 35.6 24.8 65% 30 30.01 0.0
06 02:15 NW 7 10.00 Overcast OVC075 33.8 24.8 70% 28 30.01 0.0
06 01:55 W 6 10.00 Mostly Cloudy BKN075 33.8 21.2 60% 29 30.01 0.0
06 01:35 NW 6 10.00 Mostly Cloudy BKN075 33.8 23 65% 29 30.01 0.0
06 01:15 NW 7 10.00 Partly Cloudy SCT075 33.8 23 65% 28 30.01 0.0
06 00:55 NW 7 10.00 Partly Cloudy SCT075 33.8 23 65% 28 30.01 0.0
06 00:35 NW 6 10.00 Partly Cloudy SCT075 35.6 23 60% 31 30.01 0.0
06 00:15 N 7 10.00 Mostly Cloudy BKN075 35.6 23 60% 31 30 0.0
05 23:55 N 8 10.00 Overcast OVC075 37.4 23 56% 32 30 0.0
05 23:35 N 10 10.00 Overcast OVC075 37.4 21.2 52% 31 30 0.0
05 23:15 N 7 10.00 Mostly Cloudy BKN075 37.4 23 56% 33 30 0.0
05 22:55 N 8 10.00 Mostly Cloudy BKN075 37.4 23 56% 32 29.99 0.0
05 22:35 N 6 10.00 Mostly Cloudy BKN075 37.4 23 56% 33 29.99 0.0
05 22:15 N 7 10.00 Overcast OVC075 39.2 21.2 48% 35 29.98 0.0
05 21:55 N 7 10.00 Overcast OVC075 39.2 21.2 48% 35 29.98 0.0
05 21:35 N 7 10.00 Overcast OVC075 41 21.2 45% 37 29.97 0.0
05 21:15 N 8 10.00 Overcast OVC075 41 21.2 45% 36 29.96 0.0
05 20:55 N 7 10.00 Overcast OVC075 41 21.2 45% 37 29.95 0.0
05 20:35 N 10 10.00 Mostly Cloudy BKN075 42.8 21.2 42% 38 29.95 0.0
05 20:15 N 14 10.00 Mostly Cloudy BKN075 42.8 21.2 42% 36 29.95 0.0
05 19:55 N 12 10.00 Overcast SCT060 OVC075 44.6 19.4 37% 39 29.95 0.0
05 19:35 NW 12 10.00 Overcast SCT060 OVC075 44.6 19.4 37% 39 29.94 0.0
05 19:15 N 13 10.00 Overcast SCT060 OVC075 44.6 21.2 39% 39 29.94 0.0
05 18:55 NW 13 10.00 Overcast OVC075 44.6 19.4 37% 39 29.93 0.0
05 18:35 N 10 10.00 Mostly Cloudy SCT060 BKN075 44.6 21.2 39% 40 29.93 0.0
05 18:15 N 15 10.00 Mostly Cloudy SCT060 BKN075 44.6 19.4 37% 38 29.93 0.0
05 17:55 NW 12 G 22 10.00 Mostly Cloudy SCT060 BKN075 46.4 19.4 34% 42 29.92 0.0
05 17:35 NW 14 G 18 10.00 Mostly Cloudy BKN075 46.4 19.4 34% 41 29.92 0.0
05 17:15 NW 20 10.00 Mostly Cloudy SCT065 BKN075 46.4 19.4 34% 40 29.92 0.0
05 16:55 NW 18 G 24 10.00 Mostly Cloudy BKN065 46.4 17.6 32% 40 29.92 0.0
05 16:35 NW 14 G 24 10.00 Mostly Cloudy BKN065 46.4 19.4 34% 41 29.92 0.0
05 16:15 NW 20 G 24 10.00 Mostly Cloudy SCT065 BKN075 46.4 17.6 32% 40 29.92 0.0
05 15:55 NW 17 G 26 10.00 Mostly Cloudy SCT065 BKN075 48.2 17.6 29% 42 29.91 0.0
05 15:35 NW 17 G 23 10.00 Mostly Cloudy SCT065 BKN075 48.2 17.6 29% 42 29.92 0.0
05 15:15 NW 18 G 22 10.00 Partly Cloudy SCT075 SCT080 48.2 17.6 29% 42 29.92 0.0
05 14:55 NW 13 G 23 10.00 Mostly Cloudy BKN075 48.2 17.6 29% 43 29.92 0.0
05 14:35 NW 17 G 25 10.00 Mostly Cloudy BKN065 48.2 17.6 29% 42 29.92 0.0
05 14:15 NW 14 G 25 10.00 Mostly Cloudy BKN065 48.2 15.8 27% 43 29.91 0.0
05 13:55 NW 12 G 21 10.00 Mostly Cloudy BKN065 48.2 15.8 27% 44 29.91 0.0
05 13:35 NW 16 G 23 10.00 Mostly Cloudy BKN065 48.2 15.8 27% 43 29.91 0.0
05 13:15 NW 16 G 24 10.00 Mostly Cloudy BKN065 46.4 17.6 32% 40 29.92 0.0
05 12:55 NW 15 G 21 10.00 Mostly Cloudy BKN065 46.4 19.4 34% 41 29.91 0.0
05 12:35 NW 17 G 24 10.00 Mostly Cloudy BKN065 46.4 17.6 32% 40 29.91 0.0
05 12:15 NW 18 G 24 10.00 Overcast OVC065 46.4 17.6 32% 40 29.91 0.0
05 11:55 NW 16 G 22 10.00 Mostly Cloudy BKN065 46.4 17.6 32% 40 29.91 0.0
05 11:35 NW 18 G 22 10.00 Mostly Cloudy BKN065 48.2 17.6 29% 42 29.9 0.0
05 11:15 NW 18 G 29 10.00 Partly Cloudy SCT065 48.2 17.6 29% 42 29.9 0.0
05 10:55 N 18 G 24 10.00 Partly Cloudy SCT065 46.4 17.6 32% 40 29.9 0.0
05 10:35 NW 18 G 29 10.00 Fair CLR 46.4 17.6 32% 40 29.9 0.0
05 10:15 NW 17 G 23 10.00 Fair CLR 46.4 17.6 32% 40 29.9 0.0
05 09:55 NW 16 G 22 10.00 Fair CLR 44.6 21.2 39% 38 29.89 0.0
05 09:35 NW 17 G 21 10.00 Fair CLR 44.6 21.2 39% 38 29.89 0.0
05 09:15 NW 14 G 17 10.00 Fair CLR 44.6 24.8 46% 39 29.89 0.0
05 08:55 NW 9 10.00 Fair CLR 42.8 28.4 57% 38 29.89 0.0
05 08:35 NW 9 10.00 Fair CLR 39.2 28.4 65% 34 29.88 0.0
05 08:15 NW 8 10.00 Fair CLR 37.4 28.4 70% 32 29.88 0.0
05 07:55 NW 7 10.00 Fair CLR 37.4 28.4 70% 33 29.87 0.0
05 07:35 W 6 10.00 Fair CLR 33.8 26.6 75% 29 29.86 0.0
05 07:15 W 6 10.00 Fair CLR 32 26.6 80% 27 29.86 0.0
05 06:55 W 7 10.00 Fair CLR 30.2 24.8 80% 24 29.85 0.0
05 06:35 W 7 10.00 Fair CLR 30.2 24.8 80% 24 29.84 0.0
05 06:15 NW 6 10.00 Fair CLR 28.4 23 80% 23 29.85 0.0
05 05:55 NW 6 10.00 Fair CLR 28.4 23 80% 23 29.85 0.0
Date Time (cdt) Wind (mph) Vis. (mi.) Weather Sky Cond. Air Dwpt Max. Min. Relative Humidity Wind Chill (°F) Heat Index (°F) altimeter (in) sea level (mb) 1 hr 3 hr 6 hr
6 hour
Temperature (ºF) Pressure Precipitation (in)